| time (UTC) | temp F | wind direction | speed MPH | gust MPH | rain 1hr in | rain 24hr in | rain mn in | humidity % | barometer mb |
| 20260503032708 | 40 | 0 | 0.0 | 0.0 | 0.00 | 0.00 | 0.00 | 54 | 1020.7 |
| 20260503031808 | 41 | 0 | 0.0 | 0.0 | 0.00 | 0.00 | 0.00 | 53 | 1020.7 |
| 20260503030908 | 41 | 0 | 0.0 | 0.0 | 0.00 | 0.00 | 0.00 | 53 | 1020.7 |
| 20260503030008 | 42 | 0 | 0.0 | 0.0 | 0.00 | 0.00 | 0.00 | 53 | 1020.7 |
| 20260503025408 | 42 | 0 | 0.0 | 0.0 | 0.00 | 0.00 | 0.00 | 55 | 1020.7 |
| 20260503024508 | 43 | 0 | 0.0 | 0.0 | 0.00 | 0.00 | 0.00 | 58 | 1020.7 |
| 20260503023629 | 44 | 0 | 0.0 | 0.0 | 0.00 | 0.00 | 0.00 | 55 | 1020.7 |
| 20260503022729 | 45 | 0 | 0.0 | 0.0 | 0.00 | 0.00 | 0.00 | 47 | 1020.7 |
| 20260503021808 | 44 | 0 | 0.0 | 0.0 | 0.00 | 0.00 | 0.00 | 49 | 1019.4 |
| 20260503020908 | 45 | 0 | 0.0 | 0.0 | 0.00 | 0.00 | 0.00 | 48 | 1019.4 |
| 20260503020029 | 46 | 0 | 0.0 | 0.0 | 0.00 | 0.00 | 0.00 | 44 | 1019.4 |
| 20260503015410 | 46 | 0 | 0.0 | 0.0 | 0.00 | 0.00 | 0.00 | 44 | 1019.4 |
| 20260503014507 | 48 | 0 | 0.0 | 0.0 | 0.00 | 0.00 | 0.00 | 41 | 1019.4 |
| 20260503013629 | 49 | 0 | 0.0 | 0.0 | 0.00 | 0.00 | 0.00 | 39 | 1019.4 |
| 20260503012707 | 51 | 174 | 0.0 | 2.0 | 0.00 | 0.00 | 0.00 | 35 | 1019.4 |
| 20260503011833 | 52 | 171 | 1.0 | 3.0 | 0.00 | 0.00 | 0.00 | 27 | 1019.4 |
| 20260503010912 | 52 | 113 | 2.0 | 4.0 | 0.00 | 0.00 | 0.00 | 27 | 1019.4 |
| 20260503010012 | 51 | 101 | 1.0 | 4.0 | 0.00 | 0.00 | 0.00 | 29 | 1019.4 |
| 20260503005433 | 52 | 101 | 0.0 | 3.0 | 0.00 | 0.00 | 0.00 | 28 | 1019.4 |
| 20260503004512 | 54 | 101 | 1.0 | 3.0 | 0.00 | 0.00 | 0.00 | 29 | 1019.4 |
| 20260503003612 | 55 | 100 | 2.0 | 6.0 | 0.00 | 0.00 | 0.00 | 29 | 1019.4 |
| 20260503002712 | 55 | 108 | 3.0 | 7.0 | 0.00 | 0.00 | 0.00 | 28 | 1019.4 |
| 20260503001812 | 55 | 113 | 3.0 | 6.0 | 0.00 | 0.00 | 0.00 | 29 | 1019.7 |
| 20260503000912 | 55 | 109 | 2.0 | 4.0 | 0.00 | 0.00 | 0.00 | 32 | 1019.7 |
| 20260503000012 | 55 | 133 | 0.0 | 1.0 | 0.00 | 0.00 | 0.00 | 34 | 1019.7 |
| 20260502235412 | 55 | 123 | 1.0 | 7.0 | 0.00 | 0.00 | 0.00 | 29 | 1019.7 |
| 20260502234511 | 54 | 126 | 0.0 | 1.0 | 0.00 | 0.00 | 0.00 | 34 | 1019.7 |
| 20260502233612 | 55 | 293 | 0.0 | 3.0 | 0.00 | 0.00 | 0.00 | 32 | 1019.7 |
| 20260502232711 | 55 | 307 | 1.0 | 4.0 | 0.00 | 0.00 | 0.00 | 32 | 1019.7 |
| 20260502231812 | 56 | 139 | 1.0 | 4.0 | 0.00 | 0.00 | 0.00 | 26 | 1019.9 |
| 20260502230911 | 56 | 131 | 2.0 | 6.0 | 0.00 | 0.00 | 0.00 | 29 | 1019.9 |
| 20260502230012 | 56 | 138 | 0.0 | 3.0 | 0.00 | 0.00 | 0.00 | 34 | 1019.9 |
| 20260502225411 | 56 | 142 | 1.0 | 6.0 | 0.00 | 0.00 | 0.00 | 28 | 1019.9 |
| 20260502224511 | 57 | 140 | 2.0 | 8.0 | 0.00 | 0.00 | 0.00 | 28 | 1019.9 |
| 20260502223611 | 57 | 123 | 1.0 | 5.0 | 0.00 | 0.00 | 0.00 | 26 | 1019.9 |
| 20260502222711 | 57 | 127 | 1.0 | 4.0 | 0.00 | 0.00 | 0.00 | 22 | 1019.9 |
| 20260502221812 | 58 | 123 | 1.0 | 3.0 | 0.00 | 0.00 | 0.00 | 28 | 1020.4 |
| 20260502220933 | 57 | 130 | 1.0 | 4.0 | 0.00 | 0.00 | 0.00 | 25 | 1020.4 |
| 20260502220012 | 58 | 118 | 1.0 | 7.0 | 0.00 | 0.00 | 0.00 | 23 | 1020.4 |
| 20260502215432 | 58 | 116 | 2.0 | 7.0 | 0.00 | 0.00 | 0.00 | 23 | 1020.4 |
| 20260502214511 | 59 | 104 | 2.0 | 8.0 | 0.00 | 0.00 | 0.00 | 24 | 1020.4 |
| 20260502213611 | 60 | 109 | 2.0 | 8.0 | 0.00 | 0.00 | 0.00 | 21 | 1020.4 |
| 20260502212711 | 60 | 133 | 2.0 | 8.0 | 0.00 | 0.00 | 0.00 | 24 | 1020.4 |
| 20260502211812 | 63 | 101 | 3.0 | 12.0 | 0.00 | 0.00 | 0.00 | 22 | 1020.9 |
| 20260502210911 | 60 | 145 | 2.0 | 7.0 | 0.00 | 0.00 | 0.00 | 24 | 1020.9 |
| 20260502210011 | 60 | 124 | 4.0 | 10.0 | 0.00 | 0.00 | 0.00 | 19 | 1020.9 |
| 20260502205412 | 62 | 103 | 3.0 | 9.0 | 0.00 | 0.00 | 0.00 | 18 | 1020.9 |
| 20260502204532 | 61 | 293 | 2.0 | 4.0 | 0.00 | 0.00 | 0.00 | 20 | 1020.9 |
| 20260502203611 | 61 | 335 | 2.0 | 8.0 | 0.00 | 0.00 | 0.00 | 21 | 1020.9 |
| 20260502202711 | 61 | 9 | 2.0 | 7.0 | 0.00 | 0.00 | 0.00 | 24 | 1020.9 |
| 20260502201832 | 61 | 332 | 2.0 | 6.0 | 0.00 | 0.00 | 0.00 | 26 | 1021.5 |
| 20260502200911 | 61 | 38 | 2.0 | 6.0 | 0.00 | 0.00 | 0.00 | 20 | 1021.5 |
| 20260502200011 | 62 | 9 | 2.0 | 5.0 | 0.00 | 0.00 | 0.00 | 20 | 1021.5 |
| 20260502195411 | 61 | 345 | 1.0 | 4.0 | 0.00 | 0.00 | 0.00 | 27 | 1021.5 |
| 20260502194511 | 60 | 312 | 2.0 | 6.0 | 0.00 | 0.00 | 0.00 | 22 | 1021.5 |
| 20260502193611 | 61 | 80 | 2.0 | 8.0 | 0.00 | 0.00 | 0.00 | 19 | 1021.5 |
| 20260502192711 | 61 | 64 | 2.0 | 7.0 | 0.00 | 0.00 | 0.00 | 29 | 1021.5 |
| 20260502191832 | 59 | 333 | 3.0 | 6.0 | 0.00 | 0.00 | 0.00 | 22 | 1022.6 |
| 20260502190911 | 59 | 87 | 3.0 | 7.0 | 0.00 | 0.00 | 0.00 | 23 | 1022.6 |
| 20260502190011 | 61 | 63 | 3.0 | 6.0 | 0.00 | 0.00 | 0.00 | 27 | 1022.6 |
| 20260502185411 | 59 | 20 | 3.0 | 8.0 | 0.00 | 0.00 | 0.00 | 21 | 1022.6 |
| 20260502184510 | 60 | 82 | 2.0 | 8.0 | 0.00 | 0.00 | 0.00 | 29 | 1022.6 |
| 20260502183611 | 59 | 43 | 1.0 | 3.0 | 0.00 | 0.00 | 0.00 | 25 | 1022.6 |
| 20260502182711 | 58 | 40 | 1.0 | 4.0 | 0.00 | 0.00 | 0.00 | 19 | 1022.6 |
| 20260502181811 | 58 | 353 | 1.0 | 5.0 | 0.00 | 0.00 | 0.00 | 19 | 1022.6 |
| 20260502180932 | 58 | 2 | 2.0 | 5.0 | 0.00 | 0.00 | 0.00 | 23 | 1022.6 |
| 20260502163631 | 52 | 67 | 2.0 | 6.0 | 0.00 | 0.00 | 0.00 | 28 | 1022.9 |
| 20260502162710 | 52 | 80 | 2.0 | 4.0 | 0.00 | 0.00 | 0.00 | 30 | 1022.9 |
| 20260502161810 | 51 | 100 | 3.0 | 9.0 | 0.00 | 0.00 | 0.00 | 30 | 1024.1 |
| 20260502160910 | 50 | 54 | 1.0 | 4.0 | 0.00 | 0.00 | 0.00 | 32 | 1024.1 |
| 20260502151832 | 38 | 80 | 1.0 | 4.0 | 0.00 | 0.00 | 0.00 | 59 | 1024.1 |
| 20260502150931 | 35 | 63 | 1.0 | 2.0 | 0.00 | 0.00 | 0.00 | 68 | 1024.1 |
| 20260502123609 | 25 | 0 | 0.0 | 0.0 | 0.00 | 0.00 | 0.00 | 85 | 1024.1 |
| 20260502122709 | 25 | 0 | 0.0 | 0.0 | 0.00 | 0.00 | 0.00 | 85 | 1023.8 |
| 20260502121809 | 25 | 0 | 0.0 | 0.0 | 0.00 | 0.00 | 0.00 | 85 | 1023.8 |
| 20260502120909 | 25 | 0 | 0.0 | 0.0 | 0.00 | 0.00 | 0.00 | 85 | 1023.8 |
| 20260502115410 | 25 | 0 | 0.0 | 0.0 | 0.00 | 0.00 | 0.00 | 85 | 1023.8 |
| 20260502114509 | 25 | 0 | 0.0 | 0.0 | 0.00 | 0.00 | 0.00 | 85 | 1023.8 |
| 20260502113609 | 25 | 0 | 0.0 | 0.0 | 0.00 | 0.00 | 0.00 | 85 | 1023.8 |
| 20260502112712 | 25 | 0 | 0.0 | 0.0 | 0.00 | 0.00 | 0.00 | 85 | 1024.0 |
| 20260502111809 | 25 | 0 | 0.0 | 0.0 | 0.00 | 0.00 | 0.00 | 85 | 1024.0 |
| 20260502110909 | 25 | 0 | 0.0 | 0.0 | 0.00 | 0.00 | 0.00 | 85 | 1024.0 |
| 20260502110009 | 25 | 0 | 0.0 | 0.0 | 0.00 | 0.00 | 0.00 | 84 | 1024.0 |
| 20260502105409 | 25 | 0 | 0.0 | 0.0 | 0.00 | 0.00 | 0.00 | 85 | 1024.0 |
| 20260502104530 | 26 | 0 | 0.0 | 0.0 | 0.00 | 0.00 | 0.00 | 85 | 1024.0 |
| 20260502103609 | 26 | 0 | 0.0 | 0.0 | 0.00 | 0.00 | 0.00 | 84 | 1024.0 |
| 20260502102709 | 26 | 0 | 0.0 | 0.0 | 0.00 | 0.00 | 0.00 | 85 | 1024.0 |
| 20260502101830 | 26 | 0 | 0.0 | 0.0 | 0.00 | 0.00 | 0.00 | 84 | 1024.0 |
| 20260502100909 | 26 | 0 | 0.0 | 0.0 | 0.00 | 0.00 | 0.00 | 85 | 1024.0 |
| 20260502090910 | 27 | 0 | 0.0 | 0.0 | 0.00 | 0.00 | 0.00 | 85 | 1024.0 |
| 20260502070912 | 28 | 0 | 0.0 | 0.0 | 0.00 | 0.00 | 0.00 | 85 | 1023.2 |
| 20260502070034 | 28 | 0 | 0.0 | 0.0 | 0.00 | 0.00 | 0.00 | 85 | 1023.2 |
| 20260502065408 | 28 | 0 | 0.0 | 0.0 | 0.00 | 0.00 | 0.00 | 85 | 1023.2 |
| 20260502064508 | 29 | 0 | 0.0 | 0.0 | 0.00 | 0.00 | 0.00 | 85 | 1023.2 |
| 20260502063609 | 29 | 0 | 0.0 | 0.0 | 0.00 | 0.00 | 0.00 | 85 | 1023.2 |
| 20260502062708 | 29 | 0 | 0.0 | 0.0 | 0.00 | 0.00 | 0.00 | 85 | 1023.2 |
| 20260502061808 | 29 | 0 | 0.0 | 0.0 | 0.00 | 0.00 | 0.00 | 85 | 1023.2 |
| 20260502060908 | 29 | 0 | 0.0 | 0.0 | 0.00 | 0.00 | 0.00 | 85 | 1023.2 |
| 20260502060012 | 29 | 0 | 0.0 | 0.0 | 0.00 | 0.00 | 0.00 | 85 | 1023.2 |
| 20260502055429 | 29 | 0 | 0.0 | 0.0 | 0.00 | 0.00 | 0.00 | 85 | 1023.2 |
| 20260502054529 | 30 | 0 | 0.0 | 0.0 | 0.00 | 0.00 | 0.00 | 85 | 1023.2 |
| 20260502053629 | 30 | 0 | 0.0 | 0.0 | 0.00 | 0.00 | 0.00 | 85 | 1023.2 |
| 20260502052708 | 30 | 0 | 0.0 | 0.0 | 0.00 | 0.00 | 0.00 | 85 | 1023.2 |
| 20260502051808 | 30 | 0 | 0.0 | 0.0 | 0.00 | 0.00 | 0.00 | 85 | 1023.2 |
| 20260502050908 | 30 | 0 | 0.0 | 0.0 | 0.00 | 0.00 | 0.00 | 86 | 1023.2 |
| 20260502050009 | 30 | 0 | 0.0 | 0.0 | 0.00 | 0.00 | 0.00 | 86 | 1023.2 |
| 20260502045408 | 30 | 0 | 0.0 | 0.0 | 0.00 | 0.00 | 0.00 | 86 | 1023.2 |
| 20260502044529 | 30 | 0 | 0.0 | 0.0 | 0.00 | 0.00 | 0.00 | 86 | 1023.2 |
| 20260502043608 | 30 | 0 | 0.0 | 0.0 | 0.00 | 0.00 | 0.00 | 86 | 1023.2 |
| 20260502042708 | 30 | 0 | 0.0 | 0.0 | 0.00 | 0.00 | 0.00 | 86 | 1023.2 |
| 20260502041807 | 30 | 0 | 0.0 | 0.0 | 0.00 | 0.00 | 0.00 | 86 | 1023.2 |
| 20260502040907 | 30 | 0 | 0.0 | 0.0 | 0.00 | 0.00 | 0.00 | 86 | 1023.2 |
| 20260502040008 | 30 | 0 | 0.0 | 0.0 | 0.00 | 0.00 | 0.00 | 86 | 1023.2 |
| 20260502035407 | 31 | 0 | 0.0 | 0.0 | 0.00 | 0.00 | 0.00 | 85 | 1023.2 |
| 20260502034508 | 31 | 0 | 0.0 | 0.0 | 0.00 | 0.00 | 0.00 | 85 | 1023.2 |
| 20260502033629 | 31 | 0 | 0.0 | 0.0 | 0.00 | 0.00 | 0.00 | 84 | 1023.2 |